When you browse on this site, cookies collect data to enhance your experience and personalize the content and advertising you see.
Visit our Privacy Policy to learn more. By continuing to use the site, you agree to this use of cookies and data.
  • In Slovakia
  • List of Countries
  • For 7 days
  • Water Temperature
  • Satellite Maps
  • Weather Map
  • Weather Widgets
  • user-avatar
    Login

    Hourly Weather Wychodne

    Today, 14 December, Friday

    Time Temperature Precipitation Wind Pressure Humidity
    00:00 -2°C° 0 mm 3 mps 751 mmHg 85%
    01:00 -4°C° 0 mm 3 mps 752 mmHg 85%
    02:00 -4°C° 0 mm 3 mps 752 mmHg 85%
    03:00 -4°C° 0 mm 3 mps 752 mmHg 86%
    04:00 -4°C° 0 mm 3 mps 752 mmHg 86%
    05:00 -4°C° 0 mm 3 mps 752 mmHg 86%
    06:00 -4°C° 0 mm 3 mps 752 mmHg 87%
    07:00 -4°C° 0 mm 3 mps 752 mmHg 87%
    08:00 -4°C° 0 mm 3 mps 752 mmHg 87%
    09:00 -2°C° 0 mm 3 mps 753 mmHg 86%
    10:00 -2°C° 0 mm 3 mps 753 mmHg 85%
    11:00 -2°C° 0 mm 3 mps 753 mmHg 85%
    12:00 -2°C° 0 mm 3 mps 753 mmHg 83%
    13:00 -2°C° 0 mm 3 mps 753 mmHg 82%
    14:00 -2°C° 0 mm 3 mps 754 mmHg 81%
    15:00 -2°C° 0 mm 3 mps 754 mmHg 83%
    16:00 -2°C° 0 mm 3 mps 754 mmHg 84%
    17:00 -2°C° 0 mm 2 mps 754 mmHg 85%
    18:00 -2°C° 0 mm 2 mps 754 mmHg 86%
    19:00 -2°C° 0 mm 3 mps 755 mmHg 87%
    20:00 -2°C° 0 mm 3 mps 755 mmHg 88%
    21:00 -2°C° 0 mm 3 mps 755 mmHg 89%
    22:00 -4°C° 0 mm 3 mps 755 mmHg 89%
    23:00 -4°C° 0 mm 3 mps 756 mmHg 90%

    Tomorrow, 15 December, Saturday

    Time Temperature Precipitation Wind Pressure Humidity
    00:00 -3°C° 0 mm 2 mps 756 mmHg 91%
    01:00 -3°C° 0 mm 2 mps 756 mmHg 92%
    02:00 -3°C° 0 mm 2 mps 756 mmHg 92%
    03:00 -3°C° 0 mm 2 mps 756 mmHg 92%
    04:00 -3°C° 0 mm 2 mps 756 mmHg 92%
    05:00 -3°C° 0 mm 2 mps 756 mmHg 91%
    06:00 -3°C° 0 mm 2 mps 756 mmHg 91%
    07:00 -4°C° 0 mm 3 mps 757 mmHg 90%
    08:00 -4°C° 0 mm 3 mps 757 mmHg 90%
    09:00 -4°C° 0 mm 3 mps 757 mmHg 88%
    10:00 -4°C° 0 mm 3 mps 757 mmHg 85%
    11:00 -2°C° 0 mm 3 mps 757 mmHg 83%
    12:00 -2°C° 0 mm 3 mps 757 mmHg 82%
    13:00 -2°C° 0 mm 3 mps 757 mmHg 80%
    14:00 -2°C° 0 mm 3 mps 757 mmHg 79%
    15:00 -2°C° 0 mm 3 mps 757 mmHg 80%
    16:00 -2°C° 0 mm 3 mps 757 mmHg 82%
    17:00 -2°C° 0 mm 3 mps 757 mmHg 83%
    18:00 -2°C° 0 mm 3 mps 757 mmHg 84%
    19:00 -4°C° 0 mm 3 mps 757 mmHg 85%
    20:00 -4°C° 0 mm 3 mps 757 mmHg 86%
    21:00 -4°C° 0 mm 4 mps 757 mmHg 85%
    22:00 -4°C° 0 mm 4 mps 757 mmHg 85%
    23:00 -4°C° 0 mm 4 mps 756 mmHg 84%

    Day after tomorrow, 16 December, Sunday

    Time Temperature Precipitation Wind Pressure Humidity
    00:00 -4°C° 0 mm 4 mps 756 mmHg 83%
    01:00 -4°C° 0 mm 4 mps 756 mmHg 82%
    02:00 -4°C° 0 mm 4 mps 756 mmHg 81%
    03:00 -4°C° 0 mm 4 mps 756 mmHg 81%
    04:00 -4°C° 0 mm 4 mps 755 mmHg 80%
    05:00 -5°C° 0 mm 5 mps 755 mmHg 80%
    06:00 -5°C° 0 mm 5 mps 754 mmHg 80%
    07:00 -5°C° 0 mm 5 mps 754 mmHg 80%
    08:00 -5°C° 0 mm 5 mps 754 mmHg 79%
    09:00 -5°C° 0.1 mm 6 mps 754 mmHg 80%
    10:00 -6°C° 0.1 mm 6 mps 754 mmHg 81%
    11:00 -6°C° 0.1 mm 6 mps 753 mmHg 82%
    12:00 -6°C° 0.2 mm 6 mps 753 mmHg 82%
    13:00 -6°C° 0.2 mm 6 mps 753 mmHg 82%
    14:00 -6°C° 0.2 mm 6 mps 752 mmHg 82%
    15:00 -6°C° 0.3 mm 6 mps 752 mmHg 84%
    16:00 -6°C° 0.3 mm 6 mps 752 mmHg 85%
    17:00 -6°C° 0.3 mm 6 mps 751 mmHg 87%
    18:00 -6°C° 0.5 mm 6 mps 751 mmHg 88%
    19:00 -6°C° 0.5 mm 6 mps 751 mmHg 89%
    20:00 -6°C° 0.5 mm 6 mps 751 mmHg 90%
    21:00 -6°C° 0.2 mm 6 mps 751 mmHg 89%
    22:00 -6°C° 0.2 mm 5 mps 751 mmHg 89%
    23:00 -6°C° 0.2 mm 5 mps 751 mmHg 89%

    17 December, Monday

    Time Temperature Precipitation Wind Pressure Humidity
    00:00 -6°C° 0.1 mm 5 mps 751 mmHg 89%
    01:00 -6°C° 0.1 mm 5 mps 751 mmHg 89%
    02:00 -6°C° 0.1 mm 5 mps 751 mmHg 89%
    03:00 -6°C° 0 mm 5 mps 750 mmHg 90%
    04:00 -4°C° 0 mm 4 mps 750 mmHg 90%
    05:00 -4°C° 0 mm 4 mps 750 mmHg 90%
    06:00 -4°C° 0 mm 4 mps 750 mmHg 90%
    07:00 -4°C° 0 mm 4 mps 750 mmHg 91%
    08:00 -4°C° 0 mm 4 mps 750 mmHg 91%
    09:00 -4°C° 0 mm 4 mps 750 mmHg 91%
    10:00 -4°C° 0 mm 4 mps 750 mmHg 91%
    11:00 -4°C° 0 mm 4 mps 750 mmHg 91%
    12:00 -2°C° 0 mm 3 mps 750 mmHg 91%
    13:00 -2°C° 0 mm 3 mps 750 mmHg 91%
    14:00 -2°C° 0 mm 3 mps 750 mmHg 91%
    15:00 -2°C° 0 mm 3 mps 750 mmHg 92%
    16:00 -2°C° 0 mm 3 mps 751 mmHg 93%
    17:00 -2°C° 0 mm 3 mps 751 mmHg 94%
    18:00 -2°C° 0 mm 2 mps 751 mmHg 94%
    19:00 -2°C° 0 mm 2 mps 751 mmHg 95%
    20:00 -2°C° 0 mm 2 mps 752 mmHg 95%
    21:00 -3°C° 0 mm 2 mps 752 mmHg 95%
    22:00 -3°C° 0 mm 2 mps 752 mmHg 95%
    23:00 -3°C° 0 mm 2 mps 752 mmHg 95%

    18 December, Tuesday

    Time Temperature Precipitation Wind Pressure Humidity
    00:00 -4°C° 0 mm 2 mps 753 mmHg 95%
    01:00 -4°C° 0 mm 2 mps 753 mmHg 95%
    02:00 -2°C° 0 mm 1 mps 753 mmHg 95%
    03:00 -2°C° 0 mm 1 mps 753 mmHg 95%
    04:00 -3°C° 0 mm 1 mps 753 mmHg 95%
    05:00 -3°C° 0 mm 1 mps 753 mmHg 95%
    06:00 -3°C° 0 mm 1 mps 753 mmHg 95%
    07:00 -3°C° 0 mm 1 mps 754 mmHg 95%
    08:00 -3°C° 0 mm 1 mps 754 mmHg 95%
    09:00 -4°C° 0 mm 2 mps 754 mmHg 94%
    10:00 -3°C° 0 mm 2 mps 755 mmHg 93%
    11:00 -3°C° 0 mm 2 mps 755 mmHg 93%
    12:00 -2°C° 0 mm 2 mps 755 mmHg 92%
    13:00 -2°C° 0 mm 2 mps 755 mmHg 92%
    14:00 -2°C° 0 mm 2 mps 754 mmHg 91%
    15:00 -2°C° 0 mm 2 mps 754 mmHg 92%
    16:00 -3°C° 0 mm 2 mps 754 mmHg 93%
    17:00 -3°C° 0 mm 2 mps 754 mmHg 94%
    18:00 -3°C° 0 mm 2 mps 754 mmHg 94%
    19:00 -3°C° 0 mm 2 mps 755 mmHg 95%
    20:00 -3°C° 0 mm 2 mps 755 mmHg 95%
    21:00 -4°C° 0 mm 3 mps 755 mmHg 95%
    22:00 -4°C° 0 mm 3 mps 755 mmHg 95%
    23:00 -5°C° 0 mm 3 mps 755 mmHg 95%

    19 December, Wednesday

    Time Temperature Precipitation Wind Pressure Humidity
    00:00 -5°C° 0 mm 3 mps 754 mmHg 95%
    01:00 -5°C° 0 mm 3 mps 754 mmHg 95%
    02:00 -5°C° 0 mm 3 mps 754 mmHg 95%
    03:00 -5°C° 0 mm 4 mps 754 mmHg 95%
    04:00 -5°C° 0 mm 4 mps 753 mmHg 95%
    05:00 -5°C° 0 mm 4 mps 753 mmHg 94%
    06:00 -5°C° 0 mm 4 mps 753 mmHg 94%
    07:00 -6°C° 0 mm 5 mps 753 mmHg 93%
    08:00 -6°C° 0 mm 5 mps 752 mmHg 93%
    09:00 -6°C° 0 mm 6 mps 752 mmHg 91%
    10:00 -6°C° 0 mm 6 mps 752 mmHg 90%
    11:00 -5°C° 0 mm 6 mps 752 mmHg 89%
    12:00 -5°C° 0 mm 6 mps 751 mmHg 88%
    13:00 -5°C° 0 mm 6 mps 751 mmHg 87%
    14:00 -5°C° 0 mm 6 mps 750 mmHg 87%
    15:00 -5°C° 0 mm 6 mps 750 mmHg 87%
    16:00 -5°C° 0 mm 6 mps 749 mmHg 87%
    17:00 -5°C° 0 mm 6 mps 749 mmHg 87%
    18:00 -5°C° 0 mm 6 mps 749 mmHg 87%
    19:00 -5°C° 0 mm 6 mps 748 mmHg 88%
    20:00 -5°C° 0 mm 6 mps 748 mmHg 88%
    21:00 -5°C° 0 mm 6 mps 748 mmHg 89%
    22:00 -5°C° 0 mm 6 mps 748 mmHg 89%
    23:00 -5°C° 0 mm 6 mps 748 mmHg 89%
    Show more